#timestamp,LO_Frequency,Hit,StdDev 
1664161215.2,286047001.9,N
1664161235.0,286047004.1,N
1664161235.9,286047004.1,N
1664161255.8,286047001.7,N
1664161275.6,286047003.1,N
1664161295.5,286047003.7,N
1664161315.3,286047002.4,N
1664161335.1,286047000.2,N
1664161355.9,286046998.2,N
1664161375.7,286047002.8,N
1664161395.5,286047002.0,N
1664161415.4,286047002.0,N
1664161435.2,286047003.9,N
1664161455.1,286047001.8,N
1664161456.0,286047001.8,N
1664161475.8,286047001.4,N
1664161495.6,286047001.7,N
1664161515.5,286047004.0,N
1664161535.3,286047003.6,N
1664161555.1,286047003.4,N
1664161575.9,286047003.2,N
1664161595.7,286047003.0,N
1664161615.6,286047004.2,Y
1664161635.4,286046998.9,P
1664161655.2,286047001.0,N
1664161675.1,286047000.7,N
1664161676.0,286047000.7,N
1664161695.8,286047000.3,N
1664161715.7,286047002.0,N
1664161735.5,286047000.7,N
1664161755.3,286046999.1,N
1664161775.2,286046996.8,N
1664161795.9,286046995.9,N
1664161815.7,286046995.7,N
1664161835.6,286046997.5,N
1664161855.4,286046996.7,N
1664161875.3,286047000.8,N
1664161895.1,286047000.4,N
1664161896.0,286047000.4,N
1664161915.8,286047000.9,N
1664161935.7,286046998.5,N
1664161955.5,286046997.0,N
1664161975.3,286046999.2,N
1664161995.2,286046999.3,N
1664162015.0,286046998.9,N
1664162015.9,286046998.9,N
1664162035.8,286046998.4,N
1664162055.6,286046996.6,N
1664162075.4,286046997.4,N
1664162095.3,286046997.9,N
1664162115.1,286046999.6,N
1664162135.9,286047000.3,N
1664162155.7,286046999.0,N
1664162175.5,286046999.6,N
1664162195.4,286046996.8,N
1664162215.2,286046999.3,N
1664162235.1,286046998.6,N
1664162236.0,286046998.6,N
1664162255.8,286047001.2,N
1664162275.6,286046998.6,N
1664162295.5,286046999.3,N
1664162315.3,286047000.8,N
1664162335.1,286047002.8,N
1664162355.9,286047000.4,N
1664162375.7,286046999.9,N
1664162395.6,286047000.4,N
1664162415.6,286047002.4,N
1664162435.4,286047000.5,N
1664162455.2,286046996.9,N
1664162475.1,286046997.1,N
1664162476.0,286046997.1,N
1664162495.8,286046999.9,N
1664162515.7,286047000.1,N
1664162535.5,286047000.1,N
1664162555.3,286047001.5,N
1664162575.2,286047002.2,N
1664162595.9,286047002.2,N
1664162615.7,286047002.8,N
1664162635.6,286047002.6,N
1664162655.4,286047002.6,N
1664162675.3,286046999.9,N
1664162695.1,286047001.8,N
1664162696.0,286047001.8,N
1664162715.8,286047002.9,N
1664162735.7,286047003.3,N
1664162755.5,286047005.9,Y
1664162775.4,286047002.8,P
1664162795.2,286047004.4,P
1664162815.0,286047005.2,P
1664162815.9,286047005.2,N
1664162835.8,286047003.2,N
1664162855.6,286047004.0,N
1664162875.4,286047000.2,N
1664162895.3,286047000.3,N
1664162915.1,286047001.2,N
1664162935.9,286047001.2,N
1664162955.7,286046998.6,N
1664162975.5,286046998.7,N
1664162995.4,286047000.6,N
1664163015.2,286047002.3,N
1664163035.0,286047001.4,N
1664163035.9,286047001.4,N
1664163055.8,286047002.1,N
1664163075.6,286047002.5,N
1664163095.5,286047000.6,N
1664163115.3,286047001.1,N
1664163135.1,286046998.3,N
1664163155.9,286046999.1,N
1664163175.7,286046998.4,N
1664163195.6,286046998.1,N
1664163215.4,286047001.2,N
1664163235.2,286046998.2,N
1664163255.1,286046999.2,N
1664163256.0,286046999.2,N
1664163275.8,286046995.1,N
1664163295.6,286046997.3,N
1664163315.5,286046999.1,N
1664163335.3,286047000.4,N
1664163355.2,286046999.9,N
1664163375.0,286047000.6,N
1664163375.9,286047000.6,N
1664163395.7,286047002.3,N
1664163415.6,286046999.7,N
1664163435.4,286046998.7,N
1664163455.3,286046998.1,N
1664163475.1,286046998.3,N
1664163476.0,286046998.3,N
1664163495.8,286046998.3,N
1664163515.7,286047000.9,N
1664163535.5,286047002.1,N
1664163555.3,286047002.3,N
1664163575.2,286046998.1,N
1664163595.0,286046998.3,N
1664163595.9,286046998.3,N
1664163615.8,286046999.3,N
1664163635.6,286047001.2,N
1664163655.4,286046998.1,N
1664163675.3,286046998.1,N
1664163695.1,286046998.3,N
1664163715.8,286046999.8,N
1664163735.7,286047000.4,N
1664163755.5,286047000.0,N
1664163775.4,286047000.1,N
1664163795.2,286047001.4,N
1664163815.0,286047001.6,N
1664163815.9,286047001.6,N
1664163835.8,286047002.2,N
1664163855.6,286047004.4,N
1664163875.5,286046998.9,N
1664163895.3,286046998.5,N
1664163915.1,286046998.3,N
1664163935.9,286046998.6,N
1664163955.7,286046998.7,N
1664163975.5,286046998.3,N
1664163995.4,286046999.0,N
1664164015.2,286046998.9,N
1664164035.1,286046998.7,N
1664164036.0,286046998.7,N
1664164055.8,286046998.3,N
1664164075.6,286047001.2,N
1664164095.5,286046996.5,N
1664164115.3,286046997.1,N
1664164135.1,286046998.9,N
1664164155.9,286047000.9,N
1664164175.7,286047000.7,N
1664164195.6,286046998.2,N
1664164215.4,286047002.8,N
1664164235.2,286047001.9,N
1664164255.1,286047000.4,N
1664164256.0,286047000.4,N
1664164275.8,286047000.7,N
1664164295.6,286046999.2,N
1664164315.5,286047000.6,N
1664164335.3,286046999.2,N
1664164355.2,286047001.1,N
1664164375.9,286047000.7,N
1664164395.7,286047001.2,N
1664164415.6,286047002.4,N
1664164435.4,286047002.6,N
1664164455.2,286046999.7,N
1664164475.1,286047000.5,N
1664164476.0,286047000.5,N
1664164495.8,286047000.2,N
1664164515.7,286046998.4,N
1664164535.5,286046999.3,N
1664164555.3,286047000.9,N
1664164575.2,286047000.1,N
1664164595.0,286047000.5,N
1664164595.9,286047000.5,N
1664164615.8,286047000.0,N
1664164635.6,286047001.5,N
1664164655.4,286047004.3,Y
1664164675.3,286047001.3,P
1664164695.1,286047004.4,P
1664164715.8,286047001.5,N
1664164735.7,286047002.6,N
1664164755.5,286047000.2,N
1664164775.4,286046998.1,N
1664164795.2,286047001.1,N
